This is the latest recevied weather packets stored in our database for station/object KF7SOJ. If no packets are shown the sender has not sent any weather packets the latest 10 day(s).
| Time | Temp. | Humidity | Pressure | Rain* | Wind** | Luminosity | Snow |
|---|---|---|---|---|---|---|---|
| 1788477866 | 30° C | 18% | 925.4 hPa | 0 mm | - | 358 W/m² | - |
| 1788477567 | 30° C | 19% | 925.5 hPa | 0 mm | - | 374 W/m² | - |
| 1788477262 | 29.44° C | 19% | 925.6 hPa | 0 mm | - | 401 W/m² | - |
| 1788476962 | 29.44° C | 19% | 925.5 hPa | 0 mm | - | 401 W/m² | - |
| 1788476657 | 30° C | 18% | 925.5 hPa | 0 mm | - | 418 W/m² | - |
| 1788476354 | 30° C | 19% | 925.5 hPa | 0 mm | - | 436 W/m² | - |
| 1788476050 | 29.44° C | 19% | 925.5 hPa | 0 mm | - | 452 W/m² | - |
| 1788475746 | 30° C | 20% | 925.5 hPa | 0 mm | - | 470 W/m² | - |
| 1788475441 | 29.44° C | 19% | 925.6 hPa | 0 mm | - | 495 W/m² | - |
| 1788475137 | 29.44° C | 19% | 925.7 hPa | 0 mm | - | 525 W/m² | - |
| 1788474836 | 30° C | 18% | 925.6 hPa | 0 mm | - | 539 W/m² | - |
| 1788474531 | 29.44° C | 19% | 925.6 hPa | 0 mm | - | 564 W/m² | - |
| 1788474230 | 30° C | 19% | 925.7 hPa | 0 mm | - | 584 W/m² | - |
| 1788473925 | 30° C | 18% | 925.6 hPa | 0 mm | - | 597 W/m² | - |
| 1788473624 | 30° C | 19% | 925.6 hPa | 0 mm | - | 625 W/m² | - |
| 1788473322 | 29.44° C | 19% | 925.7 hPa | 0 mm | - | 637 W/m² | - |
| 1788473016 | 29.44° C | 19% | 925.8 hPa | 0 mm | - | 657 W/m² | - |
| 1788472715 | 29.44° C | 19% | 925.7 hPa | 0 mm | - | 676 W/m² | - |
| 1788472412 | 30° C | 19% | 926 hPa | 0 mm | - | 692 W/m² | - |
| 1788472109 | 29.44° C | 20% | 925.8 hPa | 0 mm | - | 693 W/m² | - |
| 1788471814 | 29.44° C | 19% | 925.9 hPa | 0 mm | - | 677 W/m² | - |
| 1788471506 | 29.44° C | 19% | 925.7 hPa | 0 mm | - | 688 W/m² | - |
| 1788471201 | 29.44° C | 19% | 925.7 hPa | 0 mm | - | 686 W/m² | - |
| 1788470898 | 30° C | 18% | 925.8 hPa | 0 mm | - | 727 W/m² | - |
| 1788470594 | 29.44° C | 19% | 925.5 hPa | 0 mm | - | 730 W/m² | - |
* Rain latest hour (hover to see other rain measurements)
** Current wind speed in m/s (hover to see current wind gust speed)